Theta_e
295 295 296 297 298 299 298 299 299 298 299 300 301 304 310 315 314 313 313 313 312 314 315 315 314 313 313 311 311 311 311 311 311 311 310 309 309 311 311 312 312 312 312 311 311 313 313 314 318 322 322 323 322 318 318 317 316 323 326 323 321 322 321 323 323 324 326 322 319 319 317 318 321 319 319 319 320 323 323 325 333 333 327 329 329 329 332
295 295 296 298 298 298 298 298 298 299 299 300 302 305 308 312 313 313 313 312 312 314 315 315 314 313 312 311 312 311 311 311 311 310 310 310 310 311 311 311 312 312 311 311 311 313 314 315 317 319 318 320 319 317 318 318 318 325 329 324 321 324 325 325 325 327 331 330 325 324 321 320 321 319 319 320 321 324 326 326 332 333 327 328 329 328 331
295 295 296 298 298 297 298 297 298 300 300 301 304 306 308 311 313 312 311 311 311 312 313 313 312 312 311 312 311 311 311 311 311 311 311 310 310 311 311 311 311 310 311 312 311 311 313 314 315 317 317 317 317 316 317 318 319 321 323 320 322 328 327 324 323 326 331 331 328 325 323 321 320 319 318 320 322 325 326 326 329 329 325 326 329 329 330
295 295 296 297 297 297 297 297 299 300 301 303 305 306 309 312 312 310 310 310 309 310 310 310 311 312 311 311 312 311 311 312 311 311 311 310 309 310 310 310 311 311 312 312 312 312 311 312 314 317 317 317 317 317 316 318 318 318 318 319 321 325 324 321 322 325 327 327 324 321 320 319 320 319 318 321 323 323 325 330 330 326 327 330 329 328 329
295 295 296 297 297 297 297 298 300 301 302 305 306 308 311 313 311 310 311 311 310 311 310 309 311 311 310 311 311 311 311 312 311 311 311 311 310 310 311 311 311 312 313 314 314 312 311 314 317 317 317 316 316 316 316 317 318 317 317 317 318 322 325 325 323 321 321 321 319 317 318 318 318 319 318 320 323 323 325 330 328 325 329 331 326 326 329
295 295 296 297 297 297 297 298 301 304 305 306 307 309 310 311 310 309 310 311 312 312 310 309 310 311 311 312 311 310 311 311 311 312 311 311 311 312 313 312 312 312 313 315 316 315 316 319 320 319 319 318 317 319 319 317 316 317 317 317 318 321 325 326 323 320 319 318 318 318 318 317 317 319 321 320 322 324 324 325 324 325 331 330 325 326 327
295 295 296 297 297 297 297 298 302 306 308 308 308 308 308 309 310 310 310 310 311 310 309 309 310 311 312 312 311 310 311 310 311 312 313 312 312 312 314 313 312 311 313 315 315 316 318 319 320 321 320 320 321 322 323 321 317 316 318 319 318 320 323 323 321 319 318 317 318 318 317 318 318 318 319 319 321 323 324 324 323 325 328 327 324 322 320
295 295 297 297 297 297 297 297 300 304 307 307 307 307 307 308 309 310 310 310 309 309 308 308 310 310 310 311 310 309 310 311 309 310 312 314 312 311 312 312 312 311 311 312 313 313 315 316 317 319 319 323 324 321 322 325 321 318 320 321 319 319 322 321 320 321 321 318 317 318 318 319 319 318 318 319 321 322 323 324 325 325 324 322 319 317 314
295 295 296 297 297 297 298 299 301 303 305 306 306 306 306 307 308 309 310 311 309 307 308 307 309 310 309 310 310 309 309 310 310 310 311 311 311 309 309 312 313 311 310 310 310 310 311 313 313 314 314 318 321 320 320 322 322 321 322 322 322 323 322 321 320 322 322 320 318 319 320 319 321 322 321 320 322 321 320 322 323 323 321 319 316 315 313
295 295 296 297 297 297 298 301 303 303 304 305 305 305 304 306 308 309 310 312 310 307 307 307 309 310 309 309 309 309 309 309 310 311 310 309 309 309 308 310 312 312 310 309 308 308 309 310 310 311 311 311 313 316 317 317 320 324 324 322 324 325 324 323 322 322 320 318 318 319 320 321 322 322 320 319 320 320 320 321 321 320 320 319 316 314 312
295 295 296 297 297 298 299 302 303 303 303 304 305 305 304 306 309 310 311 312 309 305 307 308 309 309 307 307 309 309 310 309 309 310 310 309 309 309 308 308 310 311 309 307 307 307 308 310 311 310 311 311 311 313 314 313 317 322 324 325 324 323 324 324 322 322 321 319 319 321 322 321 319 318 318 318 319 319 320 321 320 319 319 317 313 311 310
296 296 296 297 297 298 299 302 303 303 303 303 304 305 305 306 309 311 311 310 307 305 307 308 309 309 307 307 308 308 309 310 309 309 309 309 308 308 307 308 309 309 307 306 307 308 309 311 312 311 311 311 311 312 312 313 316 317 319 324 323 322 324 323 321 321 321 319 320 322 321 318 318 317 315 316 317 318 318 318 318 317 315 311 309 309 308
296 296 296 297 297 297 299 301 303 303 304 303 303 304 304 305 308 310 310 309 306 305 307 307 306 307 307 307 308 308 307 308 308 308 308 309 308 306 306 307 308 307 306 307 307 309 311 314 316 315 312 310 311 313 313 313 314 315 316 319 321 322 323 321 319 320 319 318 320 321 318 315 317 316 313 313 315 317 317 317 316 315 312 308 307 306 305
296 296 296 297 297 297 298 300 302 303 304 304 304 304 304 304 306 308 309 310 307 303 305 307 307 306 307 307 307 308 307 307 308 308 308 307 306 305 305 306 307 306 307 308 308 310 314 317 317 317 314 315 319 318 314 312 312 313 314 315 319 323 323 322 320 318 320 321 319 317 316 315 315 314 311 310 311 312 315 316 314 311 309 306 305 305 304
296 296 296 297 297 297 298 299 301 302 303 304 304 304 303 304 306 307 307 308 307 304 303 306 307 306 307 306 306 307 308 309 308 308 308 306 304 305 305 305 307 307 307 308 310 312 315 314 314 316 315 318 321 318 313 312 313 312 311 313 316 319 319 322 323 319 320 322 318 316 317 316 314 312 309 308 309 310 312 316 314 310 308 306 305 304 304
296 296 296 297 297 297 298 299 300 301 302 303 303 303 303 304 305 307 306 304 305 305 303 303 304 305 305 305 305 305 307 308 307 308 309 307 304 305 306 306 306 307 307 308 310 312 314 312 314 317 317 314 316 315 313 313 314 312 310 311 315 319 318 318 321 319 318 320 318 317 317 314 312 312 309 308 308 309 312 316 315 310 308 307 305 305 305
296 296 296 297 297 297 298 299 301 302 301 302 302 302 302 304 305 306 305 303 303 303 302 301 303 303 303 304 305 304 305 306 306 307 308 307 304 304 305 305 306 306 307 309 310 312 313 312 314 318 315 310 311 314 313 313 314 314 313 312 315 320 320 317 317 317 317 317 317 315 313 312 311 311 310 308 307 310 315 318 315 311 309 308 306 306 306
297 296 296 296 297 297 297 298 300 302 302 302 302 301 301 304 304 304 304 302 301 302 301 301 302 301 302 303 303 303 304 304 304 306 307 306 304 304 305 305 306 307 307 308 310 311 311 312 313 314 313 310 310 312 312 312 314 314 313 313 314 316 316 313 314 316 316 316 315 313 312 311 309 308 308 307 308 312 315 315 312 309 308 308 308 308 307
297 297 297 297 297 296 297 298 301 303 303 303 302 301 301 303 304 304 304 303 302 301 301 300 301 301 300 301 301 302 302 302 303 305 307 307 304 304 305 305 305 306 306 308 311 310 309 311 311 311 314 313 311 311 311 310 311 310 309 312 313 313 312 313 313 314 314 314 313 312 311 310 308 308 308 308 311 313 312 311 310 308 307 308 307 307 307
297 297 297 297 297 296 296 297 300 304 305 305 304 303 301 301 302 303 304 304 303 302 301 301 300 300 300 300 300 301 301 301 301 302 304 305 304 305 308 308 307 306 306 308 311 310 308 310 309 308 311 312 310 311 310 308 307 307 308 311 312 311 312 313 312 311 313 314 312 312 311 309 307 309 309 308 310 311 309 308 308 306 306 306 305 305 305
296 297 297 297 297 297 296 296 298 301 304 305 305 304 302 301 302 303 303 304 303 302 302 301 300 300 300 300 300 300 301 301 301 301 302 303 303 305 308 307 306 306 305 306 310 309 306 307 308 307 308 310 310 310 309 309 308 307 308 310 311 310 311 313 311 310 312 312 311 310 309 307 306 308 308 306 307 307 307 306 306 305 305 305 304 304 304
296 297 297 297 297 297 297 297 296 298 299 301 302 302 301 301 303 304 304 304 303 303 302 302 301 300 300 300 300 301 301 301 301 300 302 303 302 303 304 304 304 305 304 304 307 309 307 306 307 308 307 308 309 309 308 310 310 307 307 310 311 309 309 310 309 309 309 310 309 307 305 305 305 305 305 304 305 305 305 305 304 304 304 304 304 303 303
297 296 296 297 297 297 297 297 297 297 297 297 299 300 301 301 303 305 304 304 304 303 302 302 301 301 300 300 300 301 301 301 301 301 301 303 303 302 302 302 303 304 304 304 304 306 307 306 305 307 307 305 307 308 308 309 309 307 307 309 309 307 307 308 308 307 307 308 307 305 304 304 304 304 303 303 304 303 303 304 303 303 303 303 303 303 303
297 296 296 296 296 297 297 297 297 297 297 296 298 301 302 301 302 304 304 304 305 304 302 301 301 301 301 300 300 301 301 301 301 301 301 302 303 303 303 303 304 304 304 304 303 303 305 305 305 307 307 304 305 308 309 308 307 307 308 308 306 305 307 309 308 307 308 308 306 305 304 304 303 303 303 303 303 302 302 302 302 302 302 302 302 303 302
297 296 296 296 296 296 296 297 297 297 297 296 298 300 302 300 300 301 303 305 306 306 305 302 301 301 301 300 301 301 301 301 301 301 301 301 302 303 303 303 304 304 303 303 302 302 303 304 305 306 306 304 305 307 308 307 306 307 309 308 306 305 307 308 308 308 308 307 305 304 305 304 303 302 302 302 302 302 302 301 301 301 301 301 302 302 302
297 297 297 296 296 296 296 296 297 297 297 297 297 298 301 301 299 299 301 303 305 307 306 303 301 301 301 301 301 301 301 301 301 301 301 301 301 302 302 302 303 302 301 302 303 302 302 304 305 305 305 304 303 305 306 306 306 307 307 306 305 305 307 307 307 307 307 306 305 304 304 303 302 302 302 301 301 301 301 301 300 300 300 300 300 301 301
297 297 297 297 297 296 296 296 296 296 297 297 297 298 300 302 302 300 298 300 305 307 307 305 302 301 302 301 301 301 301 301 302 301 301 301 301 301 301 301 302 301 300 302 302 301 301 303 304 304 304 303 303 305 304 303 305 306 306 305 304 305 306 306 307 307 307 306 305 304 304 304 303 302 302 302 301 301 302 301 301 300 300 300 299 299 300
297 297 297 297 297 297 296 296 296 296 297 297 299 301 302 303 304 301 298 298 303 305 306 305 303 302 302 302 301 301 301 301 302 302 302 302 301 302 302 301 301 301 300 301 301 301 302 302 302 302 302 301 303 306 304 303 305 306 305 303 304 304 304 306 307 307 306 306 305 304 304 304 303 303 302 302 302 302 302 301 301 301 301 301 300 299 299
297 297 297 297 297 297 297 296 295 296 297 297 300 304 304 304 303 301 298 298 299 301 304 305 304 303 303 302 301 301 301 301 302 302 302 302 301 301 301 301 301 301 300 300 300 301 302 302 301 302 301 300 302 304 304 305 307 306 303 302 303 303 304 305 305 305 305 304 304 304 304 303 303 302 302 302 302 301 301 301 300 300 300 301 300 299 299
297 297 297 297 297 297 297 296 295 295 297 299 301 305 306 306 304 301 298 297 298 299 302 305 304 303 302 301 301 301 302 302 302 302 302 302 302 301 301 300 300 300 300 300 300 300 300 300 300 301 300 298 300 303 303 305 305 303 301 302 302 302 303 304 303 303 304 304 304 303 303 303 302 302 301 301 301 300 300 300 300 299 299 299 299 299 299
297 297 297 297 297 297 296 296 295 296 299 301 303 305 306 305 304 302 299 297 297 299 303 305 304 303 302 302 301 301 302 302 303 303 302 302 302 302 302 301 300 300 300 300 300 299 299 299 300 301 299 298 300 301 302 304 305 302 301 301 301 301 302 302 302 303 303 303 303 303 302 302 302 301 300 300 300 300 300 299 299 298 298 299 298 298 298
297 297 297 297 297 297 296 295 295 296 298 299 300 302 303 303 302 300 298 297 297 300 304 305 304 302 302 302 301 301 302 302 303 303 302 301 301 302 302 301 301 301 301 301 300 300 300 300 300 301 300 299 300 301 303 305 305 303 300 300 301 300 300 301 301 301 301 302 302 302 301 301 301 300 300 299 299 299 299 298 298 298 297 297 297 297 297
296 296 296 297 297 296 296 295 294 295 298 300 301 301 301 300 298 298 297 297 298 302 305 305 303 302 302 302 302 301 302 302 302 302 302 301 301 301 301 301 302 301 301 301 300 300 300 300 300 301 300 299 300 301 302 303 303 302 301 300 300 300 300 299 300 300 299 300 301 300 300 300 300 300 300 299 299 298 298 298 298 297 297 297 297 297 297
296 296 296 296 296 295 295 295 296 298 301 303 304 304 301 298 297 297 297 297 299 303 303 302 302 302 302 302 303 302 302 302 302 302 301 301 301 301 301 301 301 302 301 301 300 300 301 300 300 301 301 300 300 300 301 301 301 300 300 300 300 300 300 299 300 300 299 299 299 299 299 299 299 298 299 299 299 298 298 298 298 298 297 297 297 297 297
295 295 296 295 295 295 296 298 300 302 303 304 304 303 300 298 297 297 297 298 302 304 303 300 301 302 303 304 304 303 302 302 302 302 302 301 302 301 300 300 302 303 302 301 301 302 302 301 300 302 302 300 300 300 300 300 300 300 300 300 300 300 300 300 300 300 299 299 299 299 299 299 298 298 298 298 298 298 298 298 298 298 298 297 297 297 297
296 297 297 297 296 297 299 300 302 303 304 305 304 301 298 296 297 297 297 299 302 304 303 302 303 303 304 305 304 302 301 302 301 301 302 302 301 301 300 301 302 302 301 300 301 302 302 301 301 302 302 301 301 301 300 300 300 300 300 300 300 300 300 300 300 300 300 299 299 299 298 298 298 298 298 298 298 298 298 298 298 298 298 297 297 297 297
298 300 301 301 300 300 302 303 301 301 303 304 301 298 297 298 299 299 300 301 302 302 302 303 304 303 303 304 302 301 302 302 302 302 302 301 301 301 301 302 302 301 301 302 302 302 301 300 301 302 302 301 300 300 299 299 300 299 299 299 299 299 300 300 300 300 300 300 299 299 298 298 298 298 298 298 298 298 298 298 297 297 297 297 297 297 297
299 301 302 303 303 303 304 303 299 298 300 300 299 299 300 301 302 303 302 302 302 301 301 303 304 303 303 304 303 302 302 302 302 303 302 301 301 301 301 301 301 300 302 303 302 300 300 301 302 302 302 300 299 299 299 299 299 299 299 299 299 299 299 300 300 300 300 300 299 299 299 298 298 298 298 298 298 298 298 297 297 297 297 297 297 297 296
301 302 303 304 304 303 303 301 298 297 299 300 300 302 302 301 301 302 301 301 301 301 301 303 303 302 303 304 303 302 301 301 303 304 302 301 301 301 300 301 301 300 301 302 301 300 301 302 302 302 302 300 299 299 299 299 299 299 299 299 299 299 299 299 300 300 299 299 299 299 298 298 298 297 298 298 298 298 298 297 297 297 297 297 297 296 296
302 303 304 304 303 301 300 299 299 300 301 301 301 301 301 300 300 301 301 301 302 302 302 302 302 301 302 303 303 302 301 301 303 303 302 301 301 301 301 301 300 300 301 301 300 300 300 301 301 303 302 300 299 299 299 299 299 299 299 299 299 299 299 299 299 299 299 299 299 299 298 298 297 297 297 298 298 298 298 297 297 297 297 297 297 296 296
302 303 303 303 302 300 298 298 300 301 302 301 300 299 300 301 300 300 301 302 302 302 301 302 302 301 301 301 302 302 301 301 301 301 301 301 301 300 301 301 300 300 300 300 299 300 300 301 302 302 301 299 299 299 299 299 298 298 298 299 299 299 298 298 299 299 299 299 299 298 298 298 298 298 297 297 297 298 298 297 297 297 297 297 296 296 296
302 302 302 301 301 300 299 300 301 301 299 299 299 300 300 300 300 300 301 302 302 301 301 302 302 302 300 300 301 301 301 300 300 300 301 301 300 300 301 301 300 299 300 300 300 301 301 300 301 301 300 299 299 299 298 298 298 298 298 298 298 298 298 298 299 299 299 299 299 298 298 298 298 298 297 297 297 298 298 297 297 297 296 296 296 296 296
300 299 300 300 301 301 301 301 301 300 299 299 300 300 300 300 300 301 302 301 301 301 302 301 301 301 301 301 301 301 301 301 300 300 301 301 300 300 301 300 300 300 300 300 300 301 301 301 301 301 300 299 299 298 298 298 298 298 298 298 298 298 298 298 298 298 298 299 299 298 298 298 298 298 297 297 297 298 298 297 297 297 296 296 296 296 296
299 300 301 301 300 300 300 300 299 299 299 299 299 300 300 301 302 303 302 301 301 301 302 301 301 302 302 302 301 301 302 301 301 300 300 300 300 300 300 300 300 300 300 300 300 301 301 301 301 300 299 298 298 298 298 297 298 298 298 298 298 298 298 298 298 298 298 298 298 298 298 298 298 298 297 297 297 297 297 297 297 296 295 295 296 296 296
300 300 300 299 298 299 299 299 299 299 299 300 300 301 302 303 303 303 302 302 302 301 301 301 301 301 302 301 301 300 301 301 300 300 300 300 300 301 300 300 300 300 300 300 300 300 300 301 300 299 298 298 298 298 298 298 298 298 298 298 298 298 298 298 298 298 298 298 298 298 298 298 298 297 297 297 297 297 297 297 297 296 296 296 296 296 296
300 299 299 299 299 298 298 299 299 300 301 301 302 303 303 303 303 303 302 301 301 301 301 301 301 301 301 301 301 301 300 300 300 300 300 300 300 300 300 300 300 300 300 300 300 300 300 300 299 298 298 298 298 298 298 298 298 298 298 298 298 298 298 298 298 298 298 298 298 298 298 298 298 298 297 297 297 297 297 297 297 297 296 296 296 296 295
300 299 299 300 299 298 298 299 300 301 302 302 302 302 302 301 301 301 301 301 301 301 301 301 301 301 301 300 301 301 301 300 301 301 300 300 301 300 300 300 299 299 299 299 299 300 301 300 299 298 299 298 298 298 298 298 298 298 298 298 298 298 298 299 298 298 298 298 298 298 298 298 298 298 297 297 297 297 297 297 296 296 297 296 296 296 296
300 299 299 300 300 299 299 300 301 301 302 302 301 301 301 301 301 301 301 301 301 301 301 301 300 300 301 300 301 301 300 300 301 301 300 300 300 299 299 299 299 299 299 300 300 301 301 300 298 298 299 299 299 299 299 298 298 298 298 298 298 298 298 298 298 298 298 298 298 298 298 298 298 298 297 297 297 297 297 297 297 297 297 296 296 296 296
300 299 299 299 300 300 300 301 301 302 302 301 301 301 301 301 301 300 300 300 300 301 301 300 300 300 300 301 300 301 300 300 300 300 300 299 299 299 299 299 299 299 300 301 301 300 300 299 298 298 298 298 299 299 299 298 298 298 298 298 298 298 298 298 298 298 298 298 298 298 298 298 298 298 298 297 297 297 297 297 297 297 297 297 296 296 296
299 299 299 300 301 301 301 301 302 303 302 300 301 301 301 301 300 300 300 301 300 300 300 300 300 300 300 300 300 300 301 300 300 300 300 300 300 300 300 300 300 300 301 300 300 299 299 298 298 298 298 298 298 299 298 299 299 298 298 298 298 298 298 298 298 298 298 298 298 298 298 298 298 298 297 297 297 297 297 297 297 297 297 297 297 297 296
299 299 300 300 301 301 301 301 302 303 302 301 301 301 301 302 301 301 301 301 301 300 300 300 300 300 301 300 300 300 300 300 300 301 301 301 300 300 300 300 300 300 300 299 299 299 299 298 298 298 298 298 298 298 298 298 298 298 298 298 298 298 298 298 298 298 298 298 298 298 298 298 298 298 297 297 297 297 297 297 297 297 297 297 297 297 297
299 299 300 300 300 301 301 301 301 301 301 301 301 301 301 301 301 301 301 301 300 300 301 300 300 300 301 300 300 300 300 300 300 300 301 300 300 300 300 300 300 299 299 298 299 299 299 299 298 298 298 298 298 299 299 298 298 298 298 298 298 298 298 298 298 298 298 297 298 298 298 298 298 297 297 297 298 297 297 297 297 297 297 297 297 297 297
Wind_Speed
17 16 14 13 14 16 18 20 21 21 17 11 11 11 7 5 2 3 2 2 1 3 0 4 2 2 6 10 12 15 13 10 12 15 15 11 6 4 3 4 6 5 4 7 6 4 5 3 1 4 4 4 5 4 3 7 6 3 2 4 5 4 1 2 1 1 2 4 7 6 8 9 6 5 7 7 6 4 2 4 3 2 0 1 3 1 3
17 16 14 13 14 16 17 18 18 18 17 14 14 13 9 9 4 3 2 2 1 2 0 3 3 4 7 9 10 13 11 10 11 11 11 9 5 3 4 5 5 5 7 10 9 4 2 3 2 4 3 3 7 9 5 3 3 2 1 1 3 3 1 2 3 3 5 6 4 5 6 6 3 3 7 9 10 9 4 2 4 2 2 4 5 1 3
16 15 14 13 15 16 16 16 15 14 13 12 13 14 12 9 3 3 2 4 5 4 5 3 4 5 7 8 8 10 10 10 12 13 13 12 8 4 4 8 9 6 7 11 11 6 3 2 3 2 1 2 5 10 11 6 3 3 2 3 2 0 2 0 3 3 1 1 2 2 2 2 2 4 9 12 12 10 4 2 4 2 1 4 5 3 3
16 15 14 14 15 17 16 15 12 8 9 10 12 13 10 5 2 1 3 9 11 10 11 9 4 3 6 6 6 8 7 8 14 15 10 9 8 6 5 7 8 6 6 8 8 7 7 6 1 0 0 2 1 3 8 9 6 6 5 3 3 3 3 2 2 3 4 4 4 4 3 3 3 6 10 12 11 9 6 4 1 1 2 2 2 7 8
16 14 14 14 16 17 16 14 8 3 5 10 13 13 7 2 3 3 2 5 9 9 10 10 4 2 4 3 5 9 8 7 10 11 10 11 9 5 3 5 6 6 6 5 5 7 8 6 5 5 5 2 2 7 9 9 11 10 6 7 4 2 2 3 2 1 3 6 5 3 4 4 4 5 9 11 11 11 9 5 3 4 3 3 0 8 10
15 14 14 14 16 17 16 13 5 2 4 9 11 10 6 2 3 6 4 1 2 3 5 7 4 3 3 1 3 7 8 7 6 8 13 16 11 4 3 8 11 10 7 4 4 7 7 7 7 6 7 5 4 7 6 6 13 13 6 6 5 1 0 3 5 3 2 5 7 6 4 3 3 5 8 10 11 11 8 3 6 4 5 5 4 10 9
15 14 13 14 17 17 17 13 5 4 8 9 8 10 11 8 5 6 6 1 3 3 2 5 5 4 4 2 3 7 8 7 5 3 6 10 11 9 4 6 11 12 8 7 5 7 6 5 6 4 5 6 4 4 5 4 12 13 6 5 7 3 1 4 4 1 3 4 7 7 5 3 3 3 5 9 10 9 7 5 7 8 9 8 11 15 11
14 14 13 14 17 17 18 15 8 5 7 10 13 13 12 10 7 5 8 4 4 6 4 5 5 4 5 3 3 7 7 7 6 3 1 2 5 8 7 6 8 9 10 8 5 6 5 4 5 4 3 4 1 1 2 2 6 9 4 4 7 5 2 5 6 3 3 3 6 7 6 6 4 3 3 8 10 8 6 4 6 8 9 7 10 14 9
14 14 12 14 16 17 17 16 13 10 7 8 14 15 11 9 8 6 7 5 3 4 5 6 4 3 4 3 3 5 7 9 7 4 7 8 7 8 11 9 5 6 9 9 7 9 9 7 8 8 6 4 6 3 2 2 2 5 2 2 4 2 1 4 5 4 4 4 4 7 8 8 6 7 6 5 6 6 4 3 3 5 7 6 7 8 5
13 13 12 13 15 16 16 16 16 14 11 12 15 17 14 10 7 8 7 3 4 1 5 6 4 1 2 3 4 4 7 11 9 4 8 14 13 12 13 9 5 5 7 8 11 16 17 15 14 15 12 12 13 9 7 9 6 4 3 2 2 2 2 2 3 2 4 9 6 4 7 7 4 4 7 5 2 7 7 6 5 5 6 5 3 4 4
13 13 12 12 14 14 14 16 16 16 15 16 17 18 18 14 11 12 6 2 4 8 4 4 2 2 2 5 5 4 6 8 8 5 4 9 12 14 14 11 6 3 6 12 18 21 21 20 19 18 16 15 16 13 8 8 6 7 7 3 1 2 4 3 2 3 2 8 8 5 5 5 1 6 8 4 5 10 9 6 6 5 6 7 7 7 6
12 13 12 11 13 13 12 13 15 16 16 16 15 16 16 14 13 13 6 1 4 9 5 3 2 3 1 5 6 6 6 6 8 8 4 4 9 12 11 9 4 4 11 19 22 21 18 16 15 15 13 13 13 11 6 2 4 6 7 6 4 4 5 3 2 3 1 4 7 5 2 1 3 7 8 7 8 11 11 8 7 10 13 14 12 10 8
12 12 12 11 12 13 12 11 12 14 15 13 14 16 16 14 15 15 10 3 4 6 5 5 8 8 4 2 3 5 8 7 7 8 5 3 6 10 10 8 6 9 16 21 22 19 11 7 5 5 6 6 5 2 7 9 9 9 7 5 5 5 4 3 3 3 1 1 3 2 1 0 3 6 9 11 8 7 9 9 8 7 12 14 12 10 11
11 12 12 11 12 12 12 11 11 11 13 13 13 14 15 15 16 16 12 3 2 9 10 6 9 12 9 4 4 3 6 6 5 5 4 2 3 8 10 10 9 11 15 17 17 11 3 2 4 4 3 3 2 4 6 6 8 10 8 4 3 5 3 2 2 2 2 3 2 1 1 2 4 5 6 7 5 4 3 4 5 6 9 14 13 11 13
10 12 12 11 11 12 12 11 10 10 11 12 12 13 14 15 15 14 12 5 1 7 13 8 8 11 9 10 11 6 4 5 6 5 4 2 3 7 10 12 9 9 13 12 8 4 3 3 3 3 4 4 2 2 4 3 4 8 10 8 5 5 4 2 3 1 1 4 3 1 1 0 2 3 6 8 7 8 7 2 4 5 9 17 16 12 13
10 11 11 11 11 12 12 12 11 11 11 11 11 13 15 15 13 11 12 11 6 5 10 13 14 14 11 12 15 11 5 4 6 5 4 3 7 10 14 16 11 9 12 9 3 2 3 2 3 2 1 1 1 1 2 2 3 5 9 10 9 8 7 5 3 2 2 4 3 1 2 1 3 4 6 9 12 13 9 3 4 3 9 18 18 14 14
9 10 10 10 11 11 11 12 12 12 12 11 11 14 15 15 13 11 11 13 12 9 12 15 16 15 11 9 12 12 9 8 8 5 4 4 9 13 18 19 15 14 15 9 2 3 4 2 3 3 0 2 1 1 1 2 2 5 6 7 8 7 5 5 3 2 2 3 3 2 2 0 3 5 5 8 11 10 6 3 1 3 9 15 17 15 14
9 10 10 10 10 10 10 10 10 11 12 11 10 12 14 15 14 13 13 13 10 9 14 16 16 15 11 8 10 12 13 12 9 7 6 5 8 14 16 13 13 15 15 8 1 3 4 1 2 4 1 3 2 1 1 1 1 2 4 4 5 4 3 3 2 2 3 3 3 2 1 0 4 9 10 9 6 3 4 2 2 9 15 16 17 16 12
9 9 10 10 10 10 10 10 10 10 12 12 11 11 13 14 13 14 15 14 10 10 12 14 15 15 14 14 16 16 16 15 11 8 4 3 13 21 14 11 13 12 10 7 3 2 3 3 2 3 2 1 2 1 2 2 1 2 4 5 3 2 2 3 3 2 2 2 3 2 1 2 6 11 11 10 4 1 2 5 10 17 21 20 20 19 16
8 9 9 9 10 10 9 9 9 10 12 12 12 12 12 11 12 14 15 13 10 11 12 13 14 15 14 16 17 17 17 17 15 10 3 4 18 22 9 8 12 11 7 7 5 2 3 4 3 2 2 1 1 0 2 4 5 5 3 4 2 1 1 2 2 2 2 3 3 2 1 5 9 7 7 9 5 3 8 13 16 19 22 23 23 22 22
6 7 8 9 9 10 9 9 8 8 9 9 10 11 9 7 10 13 14 11 9 8 7 9 12 14 14 14 14 14 15 15 13 12 10 11 16 13 3 3 10 7 3 5 4 2 4 3 3 3 3 2 2 2 2 3 4 5 3 4 3 3 1 2 0 2 2 2 2 2 2 9 15 11 5 6 8 13 19 21 19 18 20 22 22 22 22
4 5 6 7 8 8 9 9 8 7 7 6 6 7 6 6 6 7 8 8 7 6 5 7 10 12 13 13 12 11 13 14 13 14 16 14 14 14 9 9 12 9 6 6 3 2 4 3 2 3 4 3 3 4 4 3 2 4 5 4 3 3 6 7 3 3 4 4 4 7 11 15 20 19 15 15 19 21 24 25 23 21 21 23 23 23 22
3 3 4 5 6 7 8 8 9 8 8 7 7 8 8 7 5 4 3 4 4 3 4 6 7 8 11 13 13 11 11 13 14 16 17 12 10 13 13 12 11 9 9 9 5 3 3 2 2 1 3 4 3 4 5 4 2 3 4 4 4 7 13 11 6 5 7 9 10 13 16 19 22 22 20 21 22 23 25 27 25 23 22 23 23 21 19
3 3 3 4 4 5 6 7 7 8 8 8 8 9 11 11 8 5 4 6 5 4 5 6 7 7 8 10 11 11 11 13 13 15 16 14 11 8 9 11 10 8 10 12 11 8 4 2 4 4 3 4 4 3 4 4 2 2 4 4 3 5 10 8 4 4 4 5 7 10 13 17 19 20 20 20 21 22 24 25 24 22 21 21 21 19 17
3 3 3 3 4 4 4 5 5 6 6 7 7 7 9 12 11 8 5 6 6 4 3 4 6 7 7 7 8 11 11 11 11 12 13 15 14 9 8 10 9 9 12 13 14 13 8 3 4 5 3 5 7 4 3 4 3 3 5 2 3 5 7 5 3 3 4 5 7 10 13 17 18 18 17 18 19 19 20 21 21 20 19 18 18 17 17
3 3 3 4 4 4 3 3 4 4 5 6 6 6 9 12 12 10 8 7 6 3 1 2 5 7 8 8 8 10 10 8 9 12 12 13 14 12 12 13 10 10 13 12 11 14 12 5 3 4 2 5 7 3 1 4 4 4 5 4 5 8 8 4 4 5 5 6 9 11 11 14 16 16 14 14 15 17 17 16 15 15 15 15 14 14 15
3 3 3 4 4 4 4 3 2 3 4 5 4 5 9 10 11 11 12 10 6 3 3 2 3 7 9 9 8 10 11 9 8 10 11 11 12 12 14 15 12 13 16 12 10 13 12 6 4 4 2 4 6 4 3 5 7 5 4 6 8 9 5 3 4 5 3 3 7 9 6 7 10 12 13 13 15 16 15 14 13 13 13 12 12 12 12
3 3 4 4 4 4 3 3 2 2 3 4 4 6 8 5 6 9 11 9 4 3 3 6 2 5 7 7 7 8 10 10 10 10 10 10 12 12 13 12 12 14 17 12 9 9 7 4 4 4 3 4 4 5 6 4 7 5 2 4 9 9 6 5 6 5 3 3 7 12 12 10 10 13 14 14 14 15 15 14 12 11 10 10 11 12 12
3 4 4 4 4 4 3 2 1 1 2 2 3 5 5 2 3 8 9 7 4 4 5 6 3 3 4 5 5 6 7 8 8 8 7 8 10 13 13 11 10 12 13 11 9 6 5 6 6 5 5 4 2 2 4 4 4 2 2 7 13 16 15 15 15 11 6 7 12 17 18 16 14 14 15 15 15 15 16 15 12 10 9 9 10 11 11
3 4 4 4 4 3 3 2 1 2 3 3 2 2 3 3 1 6 8 7 5 5 6 5 1 3 5 6 6 5 5 6 6 7 9 8 8 11 12 11 10 12 12 11 11 8 4 4 5 7 9 9 4 0 2 3 3 3 7 14 17 17 16 17 16 13 11 13 17 17 16 14 13 12 12 12 12 14 14 13 13 13 12 11 11 10 8
4 4 4 4 3 2 2 2 3 4 5 3 1 3 2 1 2 5 7 7 4 2 5 5 3 2 5 5 5 6 5 4 4 7 10 10 7 7 9 11 13 14 13 10 9 8 5 4 4 6 10 12 7 2 2 4 2 2 9 17 17 15 14 13 12 12 14 17 18 15 12 12 13 12 10 9 8 9 8 8 9 9 8 9 9 8 5
3 3 3 2 1 0 1 3 4 5 5 2 2 3 2 2 4 5 5 4 1 1 4 5 3 1 2 2 2 5 6 4 3 3 6 9 8 5 5 7 9 11 11 8 5 4 4 3 4 6 9 10 5 2 3 4 2 3 11 17 16 13 14 12 11 12 13 13 14 13 10 11 14 14 12 10 9 9 7 5 4 3 5 7 6 6 6
1 2 1 1 2 2 3 4 4 4 3 1 3 5 5 5 4 3 2 1 2 1 3 3 2 0 2 4 3 3 6 5 3 3 4 9 9 6 4 2 2 4 7 6 3 3 4 4 5 6 6 6 4 2 2 2 4 10 17 18 14 11 10 11 11 12 13 12 12 12 12 12 12 11 8 8 9 7 4 3 4 6 7 7 7 9 10
2 2 3 4 4 5 6 7 7 6 5 4 4 6 8 7 3 1 1 2 2 1 1 2 2 1 1 3 3 3 6 8 5 4 5 7 8 8 8 3 2 2 5 5 2 2 4 5 4 2 1 1 3 3 2 4 9 15 17 15 13 10 7 5 7 9 9 10 10 10 10 9 8 6 6 8 8 6 4 5 8 9 8 5 6 11 10
5 6 7 7 8 9 10 10 8 7 6 4 2 5 8 6 2 1 2 2 1 1 1 2 2 1 1 1 1 3 6 7 6 6 6 6 6 8 10 6 2 2 3 5 2 3 3 4 4 1 1 2 2 1 2 5 11 14 13 12 12 11 7 6 8 9 8 7 6 6 5 4 3 4 5 6 7 7 6 4 4 5 5 6 8 10 8
10 12 12 12 11 11 10 8 5 5 4 1 2 3 4 2 3 3 3 1 2 2 3 3 2 1 1 3 2 3 5 5 4 3 4 5 4 5 8 6 2 2 4 3 3 4 3 4 4 2 1 1 1 3 8 12 14 15 13 8 7 7 8 8 9 8 7 5 5 4 4 1 1 2 3 4 6 7 5 3 1 1 3 5 7 7 6
14 15 14 13 11 9 7 4 3 4 2 1 1 1 3 5 6 5 3 2 2 1 3 3 3 4 1 5 2 4 5 5 5 3 4 5 4 4 5 4 1 3 5 3 3 2 2 3 4 1 1 3 6 10 14 15 13 11 11 9 7 4 5 11 11 9 6 3 2 2 1 3 4 3 3 5 6 5 4 4 3 2 0 2 5 5 5
14 12 10 9 7 5 4 3 3 3 2 4 3 3 4 3 3 2 1 2 1 2 2 1 3 7 8 7 3 5 4 4 6 5 4 6 5 4 4 4 2 3 3 2 3 6 4 1 2 2 3 9 13 15 15 13 11 9 8 7 10 11 3 9 11 7 6 7 5 3 4 4 3 1 2 5 7 6 5 5 5 5 4 2 2 3 2
10 7 7 7 6 4 2 4 5 5 7 5 3 2 1 1 0 1 2 1 1 1 1 1 4 10 11 6 3 6 6 5 4 3 3 5 4 3 3 3 2 2 2 1 4 7 4 1 1 3 3 5 9 12 12 11 10 11 10 8 8 10 6 4 8 7 6 5 4 4 3 2 3 5 3 2 5 6 4 3 4 6 7 6 5 4 4
3 3 4 6 5 4 4 7 8 6 5 3 4 3 1 2 1 1 2 1 1 1 2 2 2 5 7 4 3 6 8 7 4 1 2 3 3 3 3 2 1 2 2 0 3 5 2 1 2 3 1 3 7 10 12 12 11 11 12 10 7 7 7 4 1 6 6 4 2 4 3 2 3 4 4 2 2 4 4 4 5 7 9 9 6 5 6
3 3 6 7 6 5 6 9 6 3 3 2 2 2 1 2 2 0 2 0 1 1 3 3 2 3 6 8 7 6 7 7 4 2 2 2 3 3 2 0 1 2 2 1 4 3 0 1 2 1 1 4 9 11 12 13 12 10 11 11 8 6 7 8 6 2 6 5 2 1 3 3 2 1 2 3 3 5 6 6 6 8 10 10 6 5 6
6 7 9 9 7 6 6 6 2 2 2 2 1 1 0 0 1 1 0 0 1 2 3 3 3 3 5 7 5 4 6 6 3 1 1 1 2 2 1 1 1 1 0 3 5 3 1 1 2 1 3 7 10 10 11 12 10 8 9 11 11 8 5 7 9 5 6 8 2 1 3 5 3 1 2 4 5 4 6 8 7 8 9 8 4 4 6
9 10 10 8 6 4 2 1 1 1 1 1 1 1 1 1 2 1 1 1 1 2 3 3 3 3 3 4 3 3 4 5 4 1 0 1 1 1 1 1 1 0 1 3 3 1 1 1 0 2 5 9 9 8 10 9 7 6 6 7 10 10 6 6 9 7 2 8 5 2 1 1 1 0 3 4 4 3 5 7 7 8 9 8 6 7 8
11 10 8 5 3 2 1 1 1 1 1 0 1 1 0 1 2 1 1 2 2 2 3 3 2 2 2 3 3 2 3 3 3 3 2 2 1 1 0 0 0 1 1 2 1 0 0 1 1 4 9 10 7 7 8 7 6 6 6 6 7 9 9 7 6 5 2 2 4 5 5 3 2 2 3 3 3 4 5 4 5 7 9 9 8 8 9
10 7 5 2 1 0 1 0 1 1 0 1 2 2 2 2 2 2 2 3 4 4 2 1 3 4 5 4 2 2 2 2 1 0 1 1 1 0 0 0 1 2 2 1 1 1 1 1 3 6 8 8 5 5 5 5 6 6 6 7 7 7 9 8 6 6 5 3 4 6 6 4 4 4 4 3 4 6 6 6 5 6 7 7 7 8 8
6 4 4 2 1 1 2 1 0 1 3 3 2 3 5 6 6 6 6 7 8 8 4 2 6 6 4 3 2 1 2 2 1 0 1 2 0 0 1 2 2 2 2 1 1 2 1 1 1 6 7 6 5 5 4 5 6 5 5 7 7 7 7 7 6 6 6 5 6 6 6 6 7 6 5 3 4 5 6 7 6 6 6 6 6 7 8
3 3 3 1 1 2 2 1 3 4 4 2 7 14 15 11 9 9 8 8 10 10 6 3 4 4 3 2 1 0 2 3 1 0 1 2 0 0 2 2 1 0 1 1 1 0 1 1 1 5 7 6 6 6 5 6 6 5 6 7 7 7 8 8 7 7 7 7 8 7 5 5 6 6 7 6 5 6 7 8 8 9 10 9 7 6 6
2 2 2 1 1 2 2 6 10 7 3 8 12 14 13 11 11 12 10 10 11 10 6 4 4 3 2 1 1 1 1 2 1 0 2 2 1 1 2 1 1 1 1 1 1 2 3 3 5 6 5 5 6 5 5 6 6 6 7 8 8 9 10 10 8 6 6 7 9 10 10 8 6 4 5 7 7 8 8 8 8 10 12 12 11 9 8
2 1 1 2 3 4 5 8 7 3 10 12 8 7 10 14 15 13 10 8 9 9 6 5 4 3 1 0 1 1 0 2 1 1 2 2 1 0 1 0 1 1 1 1 1 4 6 6 5 5 4 4 6 6 6 7 8 8 8 9 10 10 11 11 9 7 7 6 8 10 11 10 9 8 7 6 7 8 8 8 9 9 10 12 12 11 9
1 2 3 2 3 5 5 1 3 6 7 7 6 9 14 17 15 10 7 6 6 5 3 2 1 0 0 1 1 1 1 1 1 1 1 1 1 1 1 1 2 2 1 2 5 7 7 6 5 4 4 5 7 8 8 8 10 10 10 11 11 10 10 9 8 7 7 7 8 9 9 9 10 12 12 8 8 9 7 6 8 9 9 10 11 11 10
2 2 3 4 5 9 7 2 6 6 5 7 10 12 14 15 12 8 6 6 4 2 0 0 0 0 0 1 1 0 1 2 1 1 0 1 0 1 1 1 1 1 4 6 8 8 8 6 5 5 5 6 8 9 9 10 11 12 11 11 11 11 10 9 9 9 9 7 8 9 9 9 11 13 13 10 9 9 8 7 6 8 9 10 10 10 11
2 3 6 6 7 7 4 3 8 10 11 13 12 11 13 14 10 6 4 4 2 0 0 0 1 0 0 0 1 1 1 1 1 1 1 1 1 0 1 0 2 5 6 8 8 8 8 7 6 6 8 9 9 10 11 11 11 11 12 12 11 11 10 10 10 12 12 9 7 8 9 8 8 10 11 11 9 8 9 10 9 8 9 10 9 10 11
Wind_Direction
353 353 352 352 351 349 348 349 345 342 347 354 353 359 358 321 334 111 107 343 294 162 241 311 273 256 304 303 299 300 300 302 307 307 302 294 281 289 330 334 326 336 332 307 299 304 319 315 194 146 143 176 195 196 293 340 13 51 8 335 329 330 53 75 350 297 360 356 340 5 44 36 23 22 20 25 23 14 136 167 162 136 208 59 71 55 254
357 355 355 352 350 350 348 350 348 342 344 349 349 356 345 316 312 148 143 10 288 223 260 319 316 322 320 322 314 305 300 292 296 306 304 306 330 349 343 345 334 339 341 320 300 271 291 347 77 122 131 174 185 188 214 315 16 68 107 240 306 327 340 66 44 13 350 354 349 358 21 36 37 8 23 36 28 17 17 77 77 89 204 140 113 195 242
0 358 358 354 351 352 351 351 351 343 339 342 340 343 340 322 296 172 142 57 39 38 55 17 328 341 335 328 317 306 300 300 315 326 312 305 332 346 331 342 333 328 341 325 309 295 286 327 53 98 122 133 180 191 181 161 129 96 107 187 194 345 282 246 101 128 184 281 219 228 332 20 30 13 29 39 32 23 24 81 76 80 209 122 120 157 169
3 1 0 359 355 356 355 354 355 342 328 335 337 336 336 335 351 9 50 49 42 37 38 24 4 2 344 326 311 313 313 314 325 334 317 297 322 337 326 337 334 327 330 319 321 336 318 305 348 26 331 112 168 182 145 130 91 60 26 3 102 137 267 265 136 155 171 173 184 182 143 82 47 21 30 40 38 33 49 80 82 186 136 79 136 146 131
4 5 4 4 2 1 1 359 2 347 315 329 337 334 324 323 6 360 23 32 20 19 21 12 11 49 15 353 309 322 333 331 333 350 342 311 314 329 329 342 335 315 321 322 326 336 333 352 27 4 344 356 55 56 85 88 48 35 357 345 33 120 286 295 262 239 164 150 136 108 97 88 73 51 39 42 45 42 55 71 293 259 130 74 335 130 123
5 9 9 11 9 7 8 7 15 56 355 335 338 352 10 39 34 34 54 87 350 10 8 357 12 59 34 336 287 329 355 5 2 358 331 318 329 1 1 7 356 335 346 27 2 346 360 25 28 13 3 359 8 31 50 62 39 29 3 349 2 79 143 283 256 228 158 149 134 115 109 98 69 68 57 50 51 48 53 38 305 299 126 134 129 104 93
7 11 15 17 14 12 15 16 24 62 43 29 28 38 40 40 48 39 29 37 179 154 41 11 29 38 11 353 321 336 1 20 25 2 314 320 351 358 347 21 7 348 6 53 39 9 16 14 359 354 6 3 359 2 351 25 40 33 29 17 3 1 28 324 309 234 222 195 150 133 123 98 40 52 85 80 71 61 53 18 353 36 83 110 108 93 72
9 14 21 22 20 19 21 25 31 41 51 58 57 51 37 25 28 9 346 332 183 159 97 43 44 27 13 21 335 330 357 18 9 354 336 329 350 351 359 27 18 359 16 40 35 9 6 352 339 331 356 3 344 11 321 316 38 41 48 24 7 1 333 339 358 358 270 206 132 115 100 88 47 11 90 98 85 67 50 20 13 50 62 54 76 88 74
11 16 25 27 25 25 26 34 42 40 50 66 57 47 33 24 29 16 352 318 241 155 92 64 61 38 10 354 320 327 357 11 6 6 21 22 19 10 9 16 20 12 21 30 11 347 339 324 310 310 321 302 265 250 162 170 76 61 63 33 26 21 348 5 23 18 328 345 74 97 89 79 52 23 19 47 78 83 70 37 42 98 96 54 50 80 83
14 20 29 30 30 31 32 40 46 48 57 64 55 43 26 18 22 16 9 302 281 14 102 88 57 30 326 329 335 343 356 6 14 17 5 7 11 13 11 9 10 15 22 10 338 323 316 309 302 300 293 279 278 271 193 175 156 122 124 113 123 146 116 73 62 62 339 338 356 78 86 66 41 360 333 320 96 101 83 62 73 113 118 98 86 100 103
16 25 32 33 35 36 39 45 45 48 50 46 46 40 20 5 357 354 347 232 339 3 55 93 77 231 283 354 2 360 357 2 9 16 359 350 357 7 10 5 8 13 349 334 324 316 310 301 289 282 280 279 286 284 236 192 162 139 139 135 162 121 105 115 111 97 336 331 354 38 72 66 341 293 303 297 123 103 86 82 94 101 97 100 112 112 99
20 29 34 37 39 38 44 50 46 47 48 42 42 39 20 6 8 5 349 198 20 9 19 70 90 211 275 30 23 1 358 2 358 2 2 327 345 5 6 359 5 340 328 328 324 318 312 298 275 261 260 259 262 275 296 3 84 116 119 113 122 108 93 104 102 92 352 336 17 40 63 87 276 302 339 20 81 91 85 80 81 95 104 103 106 111 107
24 32 36 38 41 41 45 53 49 46 47 47 46 38 20 14 29 27 14 20 37 16 9 26 17 353 326 25 45 350 343 347 345 353 6 338 347 7 1 346 339 327 326 327 323 317 312 311 301 268 256 248 237 299 8 27 48 55 51 71 113 120 106 110 111 102 115 60 57 94 173 342 326 334 3 19 32 52 63 57 37 67 109 112 109 114 113
27 34 38 39 41 42 44 53 57 52 49 50 50 40 22 17 29 29 16 7 60 27 21 16 359 349 337 358 34 335 313 326 323 329 343 309 349 13 358 338 328 329 332 326 318 320 343 15 356 360 353 1 26 5 359 22 49 45 27 13 108 118 114 113 110 112 128 117 90 78 102 6 350 357 5 9 8 342 360 67 40 35 98 116 116 118 121
31 36 40 41 42 44 45 51 58 62 60 57 52 44 28 19 23 26 18 12 106 37 27 16 344 342 350 14 17 354 315 342 340 318 308 309 58 41 8 349 335 335 347 340 315 325 45 38 29 36 18 20 32 325 339 4 35 36 26 14 38 76 71 83 123 132 100 111 112 99 119 115 331 343 332 339 360 349 331 62 85 56 105 122 124 129 135
34 38 40 42 45 45 47 52 57 60 61 62 58 48 33 20 24 41 42 45 69 44 13 12 11 9 12 15 10 3 356 355 346 330 313 359 33 21 3 0 356 343 350 349 322 2 38 53 67 70 4 26 123 245 318 353 347 8 25 30 36 40 33 39 74 79 56 96 118 121 120 163 294 304 313 334 353 356 357 50 98 94 124 130 129 133 141
36 40 41 43 46 47 49 54 58 59 56 56 55 46 32 23 31 52 62 63 71 56 23 23 28 26 24 13 2 4 7 357 352 350 330 1 23 6 353 360 8 6 4 3 348 16 26 61 81 88 115 353 25 202 261 13 4 339 353 27 39 32 30 35 43 64 71 81 88 77 92 93 308 306 311 328 338 354 30 88 129 85 111 126 129 133 142
37 40 40 42 46 48 51 55 60 63 60 57 57 48 36 31 42 62 69 68 72 55 33 35 40 35 30 22 11 13 14 6 357 347 337 1 6 341 337 359 14 8 7 11 31 28 16 22 89 99 108 320 331 113 74 53 130 324 348 46 58 35 30 34 30 76 82 82 97 96 86 301 298 299 309 321 324 357 63 150 160 87 94 111 122 127 134
36 39 38 40 44 47 52 58 64 68 63 59 60 57 44 37 46 64 60 54 69 68 43 42 50 45 38 35 29 25 24 23 18 4 352 350 337 333 345 34 27 3 5 13 10 31 26 2 21 93 111 325 322 104 79 51 79 35 35 56 54 8 5 21 8 17 70 92 100 101 97 303 290 292 320 1 31 140 96 125 123 101 98 106 110 109 104
31 37 36 37 41 45 50 60 70 73 67 61 58 56 52 49 55 57 42 35 64 78 55 47 53 50 44 41 35 29 26 25 21 14 1 319 336 340 2 47 9 354 12 18 359 8 24 357 343 31 82 53 342 95 85 59 49 39 55 82 68 359 57 70 24 349 50 75 68 104 185 335 339 324 340 12 37 119 98 97 103 101 103 107 104 100 99
22 30 33 34 38 42 46 51 62 69 68 65 58 53 59 72 71 65 55 51 68 82 70 62 59 54 50 44 39 37 34 30 24 12 355 345 355 7 58 11 357 359 10 4 353 346 359 349 343 10 28 27 13 360 16 63 51 22 46 92 64 352 18 96 331 321 57 86 64 91 78 28 37 64 87 47 67 96 97 92 87 87 98 104 100 97 99
13 18 25 30 32 36 40 42 46 51 51 49 45 45 62 88 82 67 63 66 74 88 98 83 64 58 55 45 39 40 35 31 28 18 5 2 23 47 50 11 7 15 13 17 25 324 344 359 352 17 28 14 4 2 8 62 81 8 24 70 61 56 91 92 68 34 64 98 105 85 75 63 62 73 81 74 79 91 99 98 90 84 89 95 96 96 96
356 5 12 21 24 28 31 32 35 39 39 41 46 44 47 57 55 38 54 76 80 82 84 75 63 59 52 41 37 37 32 29 27 21 18 20 33 45 40 23 15 13 13 22 17 300 299 330 331 43 61 15 350 6 22 49 72 16 34 69 84 103 104 95 87 86 76 77 85 85 82 77 74 74 76 78 84 90 96 97 92 88 88 90 93 97 99
334 340 356 9 12 19 24 22 24 30 29 34 43 43 38 31 14 4 56 70 48 32 61 67 59 55 45 35 36 37 34 35 32 23 25 35 40 40 28 16 12 8 6 10 2 339 310 314 356 37 66 13 3 39 46 41 35 24 50 47 26 78 92 88 101 132 106 78 79 88 95 95 88 82 81 83 88 92 94 95 94 93 92 91 93 97 102
323 323 342 355 355 8 16 13 19 22 23 31 37 35 36 29 9 354 20 31 9 3 66 78 65 61 50 37 42 43 36 36 39 33 31 36 39 35 8 2 8 4 357 359 0 360 2 20 28 43 61 18 14 34 56 38 37 60 64 32 334 36 63 70 85 94 96 108 111 105 103 100 94 90 90 93 96 98 99 100 99 99 99 99 100 102 103
313 320 333 337 344 358 358 358 13 14 15 32 37 37 40 31 13 5 15 11 356 353 32 92 101 84 59 46 51 48 39 37 41 40 38 36 37 33 21 18 27 19 4 3 17 25 32 52 49 46 48 7 4 7 45 43 54 67 57 29 22 43 53 68 99 94 84 105 122 119 101 91 92 98 103 106 106 105 102 100 99 101 102 104 108 109 107
309 321 325 324 331 342 343 350 7 11 23 40 48 61 56 34 11 11 14 7 11 46 22 1 100 90 62 53 53 41 34 40 46 45 43 39 38 37 28 26 31 23 12 19 49 52 48 49 35 35 31 352 351 339 349 47 73 73 33 21 35 48 53 52 81 107 115 117 142 149 126 99 110 120 122 121 116 110 106 101 96 96 99 100 107 118 120
312 317 315 317 320 324 330 340 340 359 56 73 82 83 77 48 2 10 14 8 28 75 310 305 343 92 71 52 48 42 38 41 46 49 48 42 38 35 27 24 25 15 9 20 54 66 61 46 16 12 17 18 7 336 333 42 81 71 9 35 56 67 89 89 88 116 129 114 141 144 134 133 145 140 132 133 129 119 116 115 106 101 106 104 103 112 122
302 308 308 310 314 314 316 318 306 106 111 134 135 107 108 137 340 11 18 11 8 6 340 332 358 101 90 48 42 50 40 30 32 38 34 32 40 39 32 26 21 11 12 30 50 63 82 78 62 53 35 20 7 319 341 40 84 57 51 89 80 77 88 100 106 111 105 105 125 133 134 142 152 142 130 132 135 129 124 125 122 118 124 123 114 112 118
293 299 304 305 306 304 300 278 210 159 155 172 163 122 145 195 323 14 16 1 341 356 17 11 359 133 99 63 45 47 36 16 13 19 16 19 39 44 38 36 34 31 39 52 53 49 57 60 66 68 45 30 36 95 9 50 80 52 64 80 83 85 95 105 108 107 109 115 119 122 128 132 132 125 116 119 129 129 125 126 126 121 120 122 123 119 113
293 296 302 305 305 301 278 215 186 174 173 175 80 65 101 177 348 11 7 352 340 9 15 342 282 179 105 69 43 41 36 4 342 4 23 36 49 47 40 45 48 47 47 49 48 51 49 28 40 57 39 30 32 31 38 63 77 52 64 71 74 81 93 104 111 115 123 128 128 128 132 132 129 122 108 104 117 122 119 124 124 123 130 132 126 124 121
299 302 308 314 324 291 192 180 181 183 192 226 348 38 51 336 334 346 344 334 332 56 2 330 281 176 117 115 61 35 26 9 341 353 25 34 38 36 40 52 55 46 36 26 24 44 47 38 60 59 35 23 20 32 68 82 137 142 93 81 74 73 75 79 93 100 104 117 129 131 125 125 129 125 112 112 119 112 112 133 124 114 152 155 138 135 140
306 329 9 78 105 128 140 142 147 151 144 85 55 47 27 360 340 334 326 269 177 124 356 323 281 109 128 159 147 44 10 4 25 86 58 35 30 28 29 59 90 48 27 21 22 35 33 45 83 84 47 25 30 49 62 81 109 112 102 91 86 88 79 66 69 73 67 70 88 96 95 104 118 121 121 135 135 111 106 167 150 121 131 150 152 147 136
76 77 100 112 115 123 127 122 120 113 85 64 50 24 15 11 4 10 145 172 177 185 283 285 282 332 98 152 145 40 3 354 8 59 61 38 31 23 7 352 173 115 13 0 4 55 41 38 55 101 131 36 44 54 42 53 77 97 108 107 103 109 109 82 77 80 73 65 70 82 95 106 114 118 130 146 148 137 139 160 152 139 135 148 163 158 144
104 105 107 110 113 120 121 114 101 81 65 65 23 359 7 9 17 122 158 158 105 37 291 270 247 228 102 111 68 11 10 13 23 41 40 29 32 24 8 1 108 112 354 340 20 87 74 14 359 2 127 65 31 49 72 57 62 76 98 117 124 126 125 103 92 93 91 84 83 86 89 97 122 147 163 168 159 151 150 152 150 145 138 136 142 143 138
115 111 107 108 114 118 115 102 75 50 56 121 267 334 6 39 85 114 142 125 75 47 322 313 301 283 142 119 84 359 8 19 10 15 39 39 35 18 9 11 49 15 331 333 53 74 66 31 16 8 128 51 58 97 76 61 55 53 55 74 118 143 150 145 138 130 115 96 90 90 83 86 154 165 183 177 149 136 139 160 172 108 121 144 150 144 134
120 116 114 112 110 109 109 96 28 4 13 198 225 128 120 114 104 105 105 70 65 7 315 315 315 324 57 123 96 1 11 19 2 4 46 35 8 354 10 23 12 335 344 19 58 18 2 66 63 28 334 61 87 87 71 62 58 48 40 35 28 36 148 162 156 149 149 152 132 121 173 233 241 236 206 177 156 141 145 168 187 209 111 124 139 140 137
126 120 113 100 81 78 108 98 21 13 134 154 138 126 131 111 82 99 102 71 48 301 299 278 334 16 54 89 64 13 13 359 359 22 40 18 4 6 17 21 4 342 360 50 16 348 331 188 124 98 76 73 76 75 66 63 62 49 37 25 11 10 55 154 150 145 171 186 181 190 229 248 268 280 193 170 162 161 164 171 189 208 218 212 158 152 154
130 120 104 92 66 37 71 91 81 102 133 131 75 45 176 216 276 198 165 144 199 225 92 61 24 37 55 80 75 44 35 1 356 38 41 23 28 26 4 4 10 13 24 4 352 359 356 287 50 68 70 62 66 66 58 57 62 52 37 21 2 359 9 139 150 154 178 193 180 187 219 247 34 32 31 120 154 165 183 203 205 203 208 223 236 238 244
106 80 92 100 74 39 79 112 109 106 112 87 31 7 306 289 311 142 138 136 255 147 93 70 41 52 55 53 57 52 38 24 26 38 4 24 40 11 345 353 2 15 47 319 333 356 3 316 20 57 55 34 62 64 51 48 59 52 32 16 356 340 337 337 154 164 180 216 218 179 167 113 57 30 11 11 172 184 195 214 220 214 207 207 217 235 238
95 85 107 112 94 78 111 123 110 56 33 55 30 346 303 305 331 68 142 173 300 122 94 56 48 82 59 48 55 64 48 38 36 355 332 27 33 357 337 342 13 36 82 308 318 333 350 4 25 76 107 64 65 58 45 47 54 40 21 16 7 333 309 316 324 239 195 206 239 183 165 145 114 67 2 349 306 247 223 221 227 219 206 205 219 243 229
114 105 110 115 113 115 126 129 114 4 19 54 14 318 277 183 328 325 183 65 43 101 104 64 56 71 55 43 53 69 49 32 12 300 295 41 27 7 17 31 22 59 68 324 329 336 11 21 19 76 92 81 74 57 43 48 46 23 14 20 15 357 313 309 333 330 209 203 216 59 153 159 155 221 279 314 317 278 233 223 220 208 198 199 219 239 224
119 112 114 119 125 133 147 181 189 155 52 42 38 4 351 265 247 235 165 132 82 88 113 113 113 112 79 52 66 86 55 27 4 337 45 67 42 50 54 32 26 105 295 328 338 359 54 21 40 141 114 96 82 58 46 46 37 15 11 12 9 8 354 325 338 352 221 205 216 247 195 148 103 277 271 289 301 273 231 220 220 221 219 217 221 229 234
123 115 117 125 136 147 186 261 176 153 358 324 171 153 241 236 217 176 121 139 121 98 106 112 119 132 116 71 60 90 93 52 17 7 20 34 30 43 99 139 58 10 359 353 342 283 38 20 54 115 116 106 79 46 39 36 25 15 3 343 344 0 4 344 327 334 343 213 218 240 259 266 256 246 262 274 258 237 236 242 240 232 226 221 220 229 242
119 114 114 104 62 92 141 161 262 232 197 195 203 204 200 170 110 87 109 125 109 103 114 68 48 77 117 120 81 65 98 88 12 307 114 84 36 358 58 16 346 14 32 9 323 357 35 15 22 58 87 94 73 45 38 31 25 19 4 346 336 339 350 351 330 307 306 288 245 245 249 243 241 256 269 261 234 232 251 270 264 233 218 218 226 236 246
121 137 141 100 6 261 213 198 256 207 209 223 210 116 88 72 69 83 109 112 99 99 110 44 25 41 87 120 109 103 110 90 24 310 105 91 115 152 75 36 2 21 29 334 329 42 77 225 345 37 48 51 48 44 23 358 356 353 345 343 339 329 329 334 321 302 288 260 247 256 255 240 239 254 265 255 236 237 248 255 246 229 225 231 233 234 238
127 176 172 104 308 223 187 191 221 222 222 178 102 95 91 83 77 81 87 87 86 93 105 84 35 24 28 47 38 140 132 103 52 358 91 84 310 132 81 59 16 65 35 308 281 132 190 233 62 57 45 25 19 20 2 341 337 332 324 324 322 317 313 306 298 298 292 263 246 251 252 229 225 247 265 265 258 252 251 245 233 228 230 230 229 239 246
83 168 162 110 192 181 207 240 238 225 120 83 87 97 106 109 95 81 77 75 73 72 66 54 41 23 2 18 332 298 100 98 77 25 98 90 37 20 64 36 316 235 185 239 236 179 149 105 67 50 30 4 352 345 335 327 320 312 311 311 308 308 313 310 305 311 309 274 249 249 252 237 214 223 257 264 261 260 259 254 246 242 239 233 232 246 260
6 234 229 262 255 248 247 242 232 143 87 83 81 91 107 109 97 84 80 83 76 63 45 31 31 27 14 162 261 296 68 113 120 67 77 91 86 85 103 126 283 266 247 243 113 112 108 92 58 20 358 350 336 320 315 319 317 309 305 306 306 307 312 312 308 311 314 295 269 262 259 246 229 222 229 253 274 272 259 251 252 252 246 237 234 244 260
230 251 265 268 277 289 292 261 104 88 91 101 96 89 99 105 105 100 100 96 80 61 31 4 356 308 15 39 35 331 4 56 77 74 92 160 184 159 166 212 226 243 290 37 74 79 75 64 44 19 359 340 326 319 317 317 316 313 310 306 303 303 307 309 306 303 303 298 286 273 259 247 243 236 229 244 282 282 255 243 256 257 249 242 238 238 246
193 265 266 242 256 280 293 42 86 90 102 102 90 88 100 109 114 118 116 104 94 92 109 303 170 173 13 26 71 170 4 15 31 71 201 255 193 145 195 227 181 95 43 38 47 47 35 24 20 8 345 322 310 311 315 315 314 315 314 309 303 299 296 294 295 292 290 294 298 287 269 262 263 253 237 240 270 270 241 228 247 254 251 252 249 243 244
207 260 269 268 277 286 288 82 82 83 95 100 93 91 102 109 113 116 112 102 97 158 231 120 116 172 217 131 74 38 31 32 18 355 332 330 358 149 237 335 63 58 32 12 7 10 10 7 358 342 329 317 307 307 311 312 312 310 306 303 302 298 287 284 294 297 288 282 292 293 277 266 270 262 241 234 249 261 248 236 237 238 237 239 246 250 252